DLH4EW EDDH-EDDF

Flight info

Callsign DLH4EW
Flight time 0h 43m
Altitude 30000
Route AMLUH2G AMLUH M852 DENIX DCT RIMET/N0412F310 T157 KOKEB/N0363F230 T157 KERAX KERAX5A
Aircraft A319/M-SADE2E3FGIJ1LORWXYZ/HB1

Departure

Time 2026-05-04 17:53
Airport Hamburg Helmut Schmidt Airport (EDDH)

Arrival

Time 2026-05-04 18:36
Airport Frankfurt Main Airport (EDDF)
Time Latitude Longitude Altitude Speed Heading
2026-05-04 17:27 53.63292 10.00358 49 ft 0 kts 87°
2026-05-04 17:44 53.63292 10.00346 49 ft 4 kts 87°
2026-05-04 17:45 53.63290 10.00300 49 ft 4 kts 87°
2026-05-04 17:45 53.63289 10.00265 49 ft 4 kts 98°
2026-05-04 17:45 53.63300 10.00237 44 ft 4 kts 171°
2026-05-04 17:45 53.63319 10.00234 47 ft 1 kts 176°
2026-05-04 17:48 53.63307 10.00236 44 ft 5 kts 175°
2026-05-04 17:48 53.63252 10.00243 49 ft 11 kts 175°
2026-05-04 17:48 53.63154 10.00255 45 ft 17 kts 176°
2026-05-04 17:49 53.63039 10.00232 48 ft 17 kts 210°
2026-05-04 17:49 53.62971 10.00158 48 ft 9 kts 213°
2026-05-04 17:49 53.62931 10.00116 48 ft 6 kts 213°
2026-05-04 17:49 53.62895 10.00076 48 ft 7 kts 213°
2026-05-04 17:50 53.62862 10.00019 48 ft 7 kts 243°
2026-05-04 17:50 53.62835 9.99929 45 ft 10 kts 242°
2026-05-04 17:50 53.62803 9.99826 43 ft 6 kts 244°
2026-05-04 17:50 53.62819 9.99784 44 ft 5 kts 351°
2026-05-04 17:51 53.62830 9.99776 45 ft 0 kts 333°
2026-05-04 17:52 53.62833 9.99774 45 ft 2 kts 332°
2026-05-04 17:52 53.63002 9.99629 45 ft 68 kts 333°
2026-05-04 17:52 53.63690 9.99034 46 ft 141 kts 332°
2026-05-04 17:52 53.64613 9.98256 544 ft 152 kts 332°
2026-05-04 17:53 53.65595 9.97481 1219 ft 160 kts 333°
2026-05-04 17:53 53.66665 9.96658 1826 ft 176 kts 333°
2026-05-04 17:53 53.67839 9.95671 2229 ft 201 kts 331°
2026-05-04 17:53 53.69206 9.94744 2732 ft 224 kts 349°
2026-05-04 17:54 53.70788 9.94745 3681 ft 227 kts 359°
2026-05-04 17:54 53.72349 9.95035 4704 ft 230 kts 17°
2026-05-04 17:54 53.73620 9.96734 5527 ft 243 kts 57°
2026-05-04 17:54 53.74104 9.99470 6397 ft 247 kts 83°
2026-05-04 17:55 53.74177 10.02381 7218 ft 250 kts 99°
2026-05-04 17:55 53.73689 10.05222 7936 ft 260 kts 118°
2026-05-04 17:55 53.72752 10.07981 8446 ft 283 kts 123°
2026-05-04 17:55 53.71724 10.10952 8949 ft 299 kts 123°
2026-05-04 17:56 53.70697 10.13989 9354 ft 303 kts 122°
2026-05-04 17:56 53.70209 10.15414 9869 ft 302 kts 125°
2026-05-04 17:56 53.67970 10.19647 10758 ft 325 kts 147°
2026-05-04 17:56 53.66703 10.20988 11266 ft 328 kts 156°
2026-05-04 17:57 53.63783 10.22695 12435 ft 331 kts 169°
2026-05-04 17:57 53.61540 10.23700 13325 ft 336 kts 168°
2026-05-04 17:57 53.59225 10.24751 13684 ft 357 kts 168°
2026-05-04 17:57 53.57563 10.25509 13807 ft 373 kts 168°
2026-05-04 17:58 53.54986 10.26690 13981 ft 393 kts 167°
2026-05-04 17:58 53.52322 10.27916 14562 ft 400 kts 167°
2026-05-04 17:58 53.49620 10.29161 15224 ft 404 kts 167°
2026-05-04 17:58 53.46898 10.30411 15896 ft 408 kts 168°
2026-05-04 17:59 53.43783 10.31832 16641 ft 412 kts 168°
2026-05-04 17:59 53.41369 10.32928 17196 ft 415 kts 168°
2026-05-04 17:59 53.35734 10.35472 18371 ft 423 kts 168°
2026-05-04 18:00 53.32882 10.36750 18895 ft 426 kts 168°
2026-05-04 18:00 53.30011 10.38036 19440 ft 428 kts 168°
2026-05-04 18:00 53.27098 10.39338 19988 ft 429 kts 168°
2026-05-04 18:00 53.24205 10.40632 20535 ft 431 kts 168°
2026-05-04 18:01 53.21191 10.41981 21076 ft 433 kts 169°
2026-05-04 18:01 53.18387 10.43231 21563 ft 435 kts 169°
2026-05-04 18:01 53.15451 10.44518 22054 ft 436 kts 171°
2026-05-04 18:02 53.09471 10.45242 23005 ft 430 kts 188°
2026-05-04 18:02 53.06477 10.44819 23477 ft 432 kts 188°
2026-05-04 18:02 53.03480 10.44397 23870 ft 434 kts 188°
2026-05-04 18:02 53.00467 10.43981 24250 ft 435 kts 188°
2026-05-04 18:03 52.97436 10.43569 24621 ft 437 kts 189°
2026-05-04 18:03 52.94402 10.43153 24984 ft 439 kts 189°
2026-05-04 18:03 52.91354 10.42736 25343 ft 440 kts 189°
2026-05-04 18:03 52.88300 10.42321 25694 ft 442 kts 189°
2026-05-04 18:04 52.85227 10.41901 26044 ft 443 kts 189°
2026-05-04 18:04 52.82148 10.41482 26383 ft 445 kts 189°
2026-05-04 18:04 52.75955 10.40642 27032 ft 448 kts 189°
2026-05-04 18:05 52.72857 10.40224 27498 ft 446 kts 189°
2026-05-04 18:05 52.69726 10.39804 28015 ft 444 kts 189°
2026-05-04 18:05 52.66657 10.39395 28526 ft 442 kts 189°
2026-05-04 18:05 52.63596 10.38987 29041 ft 440 kts 189°
2026-05-04 18:06 52.57505 10.38167 29646 ft 438 kts 189°
2026-05-04 18:06 52.54475 10.37761 29887 ft 437 kts 189°
2026-05-04 18:06 52.51438 10.37354 29950 ft 437 kts 189°
2026-05-04 18:07 52.45346 10.36528 29953 ft 436 kts 189°
2026-05-04 18:07 52.39298 10.35715 29947 ft 436 kts 189°
2026-05-04 18:08 52.33248 10.34894 29950 ft 436 kts 189°
2026-05-04 18:08 52.27190 10.34106 29957 ft 438 kts 188°
2026-05-04 18:09 52.15039 10.32517 29939 ft 438 kts 189°
2026-05-04 18:10 52.08960 10.31723 29956 ft 438 kts 189°
2026-05-04 18:10 52.02892 10.30908 29955 ft 438 kts 188°
2026-05-04 18:11 51.96818 10.30107 29964 ft 438 kts 188°
2026-05-04 18:11 51.90744 10.29319 29940 ft 438 kts 188°
2026-05-04 18:12 51.84622 10.28527 29938 ft 439 kts 188°
2026-05-04 18:12 51.78478 10.27720 29965 ft 441 kts 188°
2026-05-04 18:13 51.72365 10.26937 29973 ft 441 kts 188°
2026-05-04 18:14 51.63185 10.25768 29967 ft 441 kts 188°
2026-05-04 18:14 51.57061 10.24973 29757 ft 443 kts 189°
2026-05-04 18:15 51.50904 10.24170 29121 ft 444 kts 188°
2026-05-04 18:15 51.44733 10.23378 26692 ft 447 kts 188°
2026-05-04 18:15 51.41624 10.22981 25681 ft 447 kts 188°
2026-05-04 18:16 51.38529 10.22595 25257 ft 433 kts 187°
2026-05-04 18:16 51.35510 10.22220 25052 ft 439 kts 187°
2026-05-04 18:16 51.32445 10.21862 24957 ft 440 kts 186°
2026-05-04 18:17 51.26294 10.21583 24988 ft 443 kts 183°
2026-05-04 18:17 51.23224 10.21440 24309 ft 443 kts 191°
2026-05-04 18:17 51.17469 10.17760 23981 ft 453 kts 210°
2026-05-04 18:18 51.14685 10.15377 23983 ft 455 kts 210°
2026-05-04 18:18 51.11891 10.12984 23980 ft 455 kts 210°
2026-05-04 18:18 51.09105 10.10595 23989 ft 455 kts 210°
2026-05-04 18:18 51.06316 10.08200 23984 ft 456 kts 210°
2026-05-04 18:19 51.00722 10.03372 23980 ft 448 kts 210°
2026-05-04 18:19 50.98042 10.01065 23983 ft 436 kts 210°
2026-05-04 18:19 50.95338 9.98737 23982 ft 448 kts 210°
2026-05-04 18:20 50.92580 9.96363 23937 ft 454 kts 210°
2026-05-04 18:20 50.89797 9.93979 23682 ft 453 kts 210°
2026-05-04 18:20 50.87026 9.91615 23428 ft 452 kts 210°
2026-05-04 18:20 50.84263 9.89263 23046 ft 449 kts 209°
2026-05-04 18:21 50.81525 9.86934 21847 ft 447 kts 210°
2026-05-04 18:21 50.78916 9.84373 21218 ft 433 kts 219°
2026-05-04 18:21 50.76707 9.81315 21114 ft 411 kts 222°
2026-05-04 18:21 50.74539 9.78292 21020 ft 425 kts 222°
2026-05-04 18:22 50.72293 9.75184 20592 ft 432 kts 221°
2026-05-04 18:22 50.70028 9.72069 19451 ft 432 kts 221°
2026-05-04 18:22 50.67764 9.68966 18514 ft 429 kts 221°
2026-05-04 18:22 50.65515 9.65881 17807 ft 418 kts 221°
2026-05-04 18:23 50.63335 9.62888 16944 ft 412 kts 221°
2026-05-04 18:23 50.61216 9.59978 16122 ft 408 kts 221°
2026-05-04 18:23 50.59063 9.57020 15317 ft 404 kts 221°
2026-05-04 18:23 50.56957 9.54132 14563 ft 400 kts 221°
2026-05-04 18:24 50.54869 9.51271 13860 ft 397 kts 220°
2026-05-04 18:24 50.52795 9.48435 13105 ft 393 kts 220°
2026-05-04 18:24 50.50747 9.45637 12362 ft 388 kts 220°
2026-05-04 18:24 50.48724 9.42879 11625 ft 382 kts 220°
2026-05-04 18:25 50.46752 9.40198 11377 ft 364 kts 220°
2026-05-04 18:25 50.45485 9.38476 11296 ft 350 kts 220°
2026-05-04 18:25 50.43637 9.35959 11174 ft 328 kts 220°
2026-05-04 18:25 50.42035 9.33776 11044 ft 305 kts 220°
2026-05-04 18:26 50.40493 9.31680 10892 ft 283 kts 220°
2026-05-04 18:26 50.39028 9.29701 10578 ft 275 kts 220°
2026-05-04 18:26 50.37580 9.27744 10071 ft 278 kts 220°
2026-05-04 18:26 50.36098 9.25743 9424 ft 285 kts 220°
2026-05-04 18:27 50.34598 9.23717 8939 ft 283 kts 220°
2026-05-04 18:27 50.33092 9.21684 8483 ft 281 kts 220°
2026-05-04 18:27 50.31613 9.19692 8102 ft 280 kts 220°
2026-05-04 18:27 50.30124 9.17686 7847 ft 284 kts 220°
2026-05-04 18:28 50.28633 9.15677 7596 ft 284 kts 220°
2026-05-04 18:28 50.27130 9.13652 7347 ft 286 kts 220°
2026-05-04 18:28 50.25622 9.11621 7102 ft 285 kts 220°
2026-05-04 18:28 50.24120 9.09598 6855 ft 285 kts 220°
2026-05-04 18:29 50.22602 9.07556 6605 ft 284 kts 220°
2026-05-04 18:29 50.21105 9.05545 6362 ft 284 kts 220°
2026-05-04 18:29 50.19625 9.03559 6106 ft 276 kts 219°
2026-05-04 18:29 50.18199 9.01652 6006 ft 264 kts 219°
2026-05-04 18:30 50.15439 8.97971 6011 ft 260 kts 219°
2026-05-04 18:30 50.14090 8.96164 6008 ft 244 kts 219°
2026-05-04 18:30 50.12855 8.94490 6003 ft 228 kts 223°
2026-05-04 18:31 50.12022 8.92503 6008 ft 216 kts 247°
2026-05-04 18:31 50.11517 8.90308 5771 ft 210 kts 248°
2026-05-04 18:31 50.11013 8.88167 5331 ft 211 kts 248°
2026-05-04 18:31 50.10507 8.86029 4905 ft 211 kts 249°
2026-05-04 18:32 50.09998 8.83882 4386 ft 214 kts 249°
2026-05-04 18:32 50.09454 8.81586 3679 ft 226 kts 250°
2026-05-04 18:32 50.09122 8.80187 3271 ft 231 kts 250°
2026-05-04 18:32 50.08456 8.77244 2872 ft 219 kts 249°
2026-05-04 18:33 50.07918 8.75102 2609 ft 203 kts 250°
2026-05-04 18:33 50.07597 8.73073 2251 ft 187 kts 266°
2026-05-04 18:33 50.07456 8.71132 1900 ft 173 kts 260°
2026-05-04 18:33 50.07091 8.69494 1817 ft 147 kts 249°
2026-05-04 18:34 50.06728 8.68067 1617 ft 137 kts 253°
2026-05-04 18:34 50.06430 8.66701 1377 ft 131 kts 254°
2026-05-04 18:34 50.06098 8.65390 1226 ft 129 kts 252°
2026-05-04 18:34 50.05797 8.64064 1119 ft 128 kts 254°
2026-05-04 18:35 50.05496 8.62791 1006 ft 127 kts 253°
2026-05-04 18:35 50.05168 8.61489 814 ft 126 kts 252°
2026-05-04 18:35 50.04841 8.60094 630 ft 125 kts 252°
2026-05-04 18:35 50.04565 8.58929 448 ft 125 kts 253°
2026-05-04 18:36 50.04286 8.57732 365 ft 105 kts 248°
2026-05-04 18:36 50.04158 8.57178 365 ft 22 kts 246°
2026-05-04 18:36 50.04078 8.56873 363 ft 33 kts 250°
2026-05-04 18:36 50.04120 8.56732 361 ft 5 kts 29°
2026-05-04 18:37 50.04152 8.56759 362 ft 5 kts 27°
2026-05-04 18:37 50.04186 8.56774 358 ft 5 kts 12°
2026-05-04 18:37 50.04190 8.56775 358 ft 1 kts 12°
2026-05-04 18:37 50.04221 8.56786 362 ft 6 kts 12°
2026-05-04 18:38 50.04269 8.56876 360 ft 22 kts 72°
2026-05-04 18:38 50.04329 8.57130 365 ft 26 kts 70°
2026-05-04 18:38 50.04389 8.57379 363 ft 21 kts 69°
2026-05-04 18:38 50.04441 8.57593 366 ft 21 kts 69°
2026-05-04 18:39 50.04492 8.57807 367 ft 22 kts 70°
2026-05-04 18:39 50.04525 8.57947 364 ft 5 kts 70°
2026-05-04 18:39 50.04527 8.57954 364 ft 0 kts 69°